Home   Weather   Büsingen am Hochrhein   Past weeks
Flag for Germany

Past Weather in Büsingen am Hochrhein, Baden-Württemberg, Germany — Yesterday and Last 2 Weeks

Now
52 °F

Broken clouds.


Feels Like: 51 °F
Forecast: 68 / 41 °F
Wind: 3 mph from North

Location: Zurich-Kloten

Current Time: May 22, 2019 at 9:01:31 am

Latest Report: May 22, 2019 at 8:20 am


Visibility: 5 mi

Pressure: 30.09 "Hg

Humidity: 88%

Dew Point: 48 °F

Location of Büsingen am HochrheinLocation

Past Weather in Büsingen am Hochrhein — Graph

°F

Büsingen am Hochrhein Temperature Yesterday

Maximum temperature yesterday: 55 °F (at 4:20 pm)
Minimum temperature yesterday: 52 °F (at 12:50 am)
Average temperature yesterday: 53 °F

High & Low Weather Summary for the Past Weeks

 TemperatureHumidityPressure
High68 °F (May 17, 3:50 pm)100% (May 11, 12:50 am)30.48 "Hg (May 11, 12:50 am)
Low32 °F (May 7, 7:20 am)31% (May 7, 5:50 pm)29.62 "Hg (May 8, 5:20 pm)
Average51 °F74%29.95 "Hg
* Reported May 7 7:20 am — May 22 7:50 am, Büsingen am Hochrhein. Weather by CustomWeather, © 2019

Note: Actual official high and low records may vary slightly from our data, if they occured in-between our weather recording intervals... More about our weather records

Advertising

Büsingen am Hochrhein Weather History for the Previous 24 Hours

Scroll right to see more
 ConditionsComfort  
Time TempWeatherWind HumidityBarometerVisibility
7:50 am
Wed, May 22
52 °FBroken clouds.3 mph94%30.09 "Hg4 mi
7:20 am52 °FPartly sunny.2 mph94%30.09 "Hg4 mi
6:50 am52 °FBroken clouds.2 mph94%30.07 "Hg4 mi
6:20 am50 °FBroken clouds.1 mph100%30.07 "Hg4 mi
5:50 am52 °FFog.1 mph94%30.07 "Hg3 mi
5:20 am52 °FFog.1 mph94%30.07 "Hg3 mi
4:50 am52 °FPartly cloudy.1 mph94%30.07 "Hg3 mi
4:20 am52 °FPartly cloudy.1 mph94%30.07 "Hg3 mi
3:50 am52 °FPartly cloudy.2 mph94%30.07 "Hg4 mi
3:20 am52 °FPartly cloudy.2 mph94%30.07 "Hg4 mi
2:50 am52 °FPartly cloudy.3 mph100%30.07 "Hg3 mi
1:50 am52 °FPartly cloudy.2 mph100%30.07 "Hg3 mi
1:20 am52 °FPartly cloudy.2 mph100%30.07 "Hg3 mi
12:50 am52 °FLight rain. Partly cloudy.2 mph100%30.07 "Hg4 mi
11:50 pm
Tue, May 21
54 °FDrizzle. Low clouds.3 mph94%30.07 "Hg4 mi
11:20 pm54 °FDrizzle. Low clouds.3 mph94%30.07 "Hg4 mi
10:50 pm54 °FRain. Low clouds.2 mph94%30.07 "Hg4 mi
10:20 pm52 °FLight rain. Passing clouds.2 mph100%30.07 "Hg4 mi
9:50 pm54 °FLight rain. Passing clouds.1 mph94%30.04 "Hg4 mi
9:20 pm54 °FLight rain. Partly cloudy.2 mph94%30.04 "Hg4 mi
8:50 pm54 °FLight rain. Broken clouds.2 mph94%30.04 "Hg4 mi
8:20 pm54 °FLight rain. Broken clouds.5 mph94%30.01 "Hg5 mi
7:50 pm54 °FLight rain. Broken clouds.2 mph94%30.01 "Hg5 mi
7:20 pm55 °FLight rain. Broken clouds.3 mph88%30.01 "Hg4 mi
6:50 pm55 °FLight rain. Broken clouds.5 mph88%30.01 "Hg4 mi
6:20 pm55 °FLight rain. Broken clouds.6 mph88%30.01 "Hg5 mi
5:50 pm55 °FLight rain. Broken clouds.5 mph88%29.98 "Hg5 mi
5:20 pm55 °FLight rain. Broken clouds.6 mph88%29.98 "Hg6 mi
4:50 pm55 °FLight rain. Broken clouds.9 mph82%29.98 "Hg6 mi
4:20 pm55 °FLight rain. Broken clouds.6 mph82%29.98 "Hg4 mi
3:50 pm54 °FLight rain. Broken clouds.8 mph88%29.98 "Hg5 mi
3:20 pm54 °FLight rain. Broken clouds.9 mph88%29.98 "Hg5 mi
2:50 pm54 °FLight rain. Broken clouds.5 mph88%29.98 "Hg5 mi
1:50 pm54 °FLight rain. Broken clouds.7 mph88%29.95 "Hg4 mi
1:20 pm54 °FRain. Broken clouds.3 mph88%29.95 "Hg4 mi
12:50 pm52 °FRain. Broken clouds.9 mph88%29.95 "Hg4 mi
12:20 pm52 °FRain. Broken clouds.6 mph88%29.95 "Hg4 mi
11:50 am52 °FRain showers. Broken clouds.8 mph88%29.95 "Hg2 mi
11:20 am52 °FLight rain. Broken clouds.7 mph88%29.92 "HgN/A
10:50 am54 °FLight rain. Broken clouds.12 mph82%29.92 "HgN/A
10:20 am54 °FScattered showers. Broken clouds.10 mph77%29.92 "HgN/A
9:50 am54 °FScattered showers. Broken clouds.10 mph82%29.92 "HgN/A
9:20 am54 °FBroken clouds.8 mph82%29.92 "HgN/A
Weather by CustomWeather, © 2019

See weather overview